Weather in Tumat

Russia / Sakha (Yakutia) Republic     70°43′20″N   139°13′33″E
temp.,
°C
wind,
m/s
gust,
m/s
humid.,
%
clouds,
%
prec.,
mm/h
press.,
hPa
HPBL,
m
6 march, sat
sat601:00−27wnw91396100 0.3 1020481
04:00−28wnw81396100 0.8 1020477
07:00−28w81394100 0.3 1021463
10:00−28w91394100 0.3 1020454
13:00−28w91395100 0.1 1019465
16:00−28w91494100 0.1 1018470
19:00−28w91494100 0.0 1017439
22:00−28w91495100 0.1 1016423
7 march, sun
sun701:00−28w101595100 0.1 1014454
04:00−28w91595100 0.1 1012463
07:00−28w101594100 0.1 1011484
10:00−27w91496100 0.3 1010526
13:00−26w91395100 0.3 1009577
16:00−26w91495100 0.6 1007581
19:00−26w81495100 0.3 1007549
22:00−25w81395100 0.4 1006520
8 march, mon
mon801:00−25w81495100 0.2 1005545
04:00−24w71395100 0.4 1004542
07:00−25wsw71193100 0.1 1004410
10:00−25wsw71190100 0.1 1004404
13:00−25wsw61092100 0.0 1003344
16:00−24wsw489499 0.0 1003235
19:00−24w489499 0.0 1004157
22:00−26w4797100 0.1 1005128
9 march, tue
tue901:00−27w489898 0.1 1005154
04:00−28w469898 0.1 1006104
07:00−29w4699100 0.0 100788
10:00−30w479899 0.1 1007137
13:00−28w599799 0.0 1008280
16:00−29w3598100 0.1 100787
19:00−29wnw339993 0.0 100835
22:00−27w229995 0.1 100735
10 march, wed
wed1001:00−26w229899 0.1 100636
04:00−24sw239799 0.1 100671
07:00−24wsw3597100 0.1 1005137
10:00−23wsw3693100 0.1 1005188
13:00−22wsw249495 0.0 1004198
16:00−21ssw229394 0.1 100520
19:00−23s238891 0.0 100520
22:00−25s238482 0.0 100620